This demonstration page uses our WeatherBlox Daily Observations layout. Learn more.

Left ArrowRight Arrow

Hourly Observations for September 19, 2021

Temp ( °F °C ) Dew Point ( °F °C ) Humidity (%) Winds ( mph kmh ) Pressure ( in mb ) Visibility ( mi km ) Precip ( " mm )
12:15 am 00:15 Clear 70 21 59 15 69 69 S 8 13 29.92 1013 10 16 N/A
12:35 am 00:35 Clear 70 21.2 59 15 68 68 S 10 17 29.91 1013 10 16 N/A
12:55 am 00:55 Clear 70 21.2 59 14.9 67 67 S 10 17 29.91 1013 10 16 N/A
1:15 am 01:15 Clear 70 21.3 58 14.5 65 65 S 12 19 29.91 1013 10 16 N/A
1:35 am 01:35 Clear 71 21.5 58 14.5 65 65 S 12 19 29.90 1013 10 16 N/A
1:55 am 01:55 Clear 69 20.8 58 14.5 67 67 S 12 19 29.91 1013 10 16 N/A
2:15 am 02:15 Clear 69 20.4 58 14.5 69 69 S 10 17 29.91 1013 10 16 N/A
2:35 am 02:35 Clear 68 20 58 14.5 71 71 S 10 17 29.92 1013 10 16 N/A
2:55 am 02:55 Clear 68 20 58 14.5 71 71 SSE 9 15 29.92 1013 10 16 N/A
3:15 am 03:15 Clear 68 19.8 58 14.5 72 72 SSE 12 19 29.91 1013 10 16 N/A
3:35 am 03:35 Clear 67 19.5 58 14.5 73 73 SSE 12 19 29.90 1013 10 16 N/A
3:55 am 03:55 Clear 67 19.3 58 14.6 74 74 SSE 10 17 29.90 1013 10 16 N/A
4:15 am 04:15 Clear 66 19.1 58 14.6 75 75 SSE 12 19 29.89 1012 10 16 N/A
4:35 am 04:35 Clear 66 19 58 14.7 76 76 S 13 20 29.90 1012 10 16 N/A
4:55 am 04:55 Clear 66 18.7 58 14.7 78 78 SSE 12 19 29.89 1012 10 16 N/A
5:15 am 05:15 Clear 65 18.5 58 14.7 79 79 SSE 10 17 29.88 1012 10 16 N/A
5:35 am 05:35 Clear 65 18.5 58 14.6 78 78 SSE 12 19 29.88 1012 10 16 N/A
5:55 am 05:55 Clear 65 18.4 58 14.5 78 78 SSE 10 17 29.87 1012 10 16 N/A
6:15 am 06:15 Clear 65 18.1 58 14.5 80 80 SSE 12 19 29.86 1011 10 16 N/A
6:35 am 06:35 Clear 65 18.1 58 14.5 80 80 SSE 10 17 29.86 1011 10 16 N/A
6:55 am 06:55 Clear 64 18 58 14.5 80 80 SSE 12 19 29.86 1011 10 16 N/A
7:15 am 07:15 Clear 64 18 58 14.5 80 80 SSE 10 17 29.86 1011 10 16 N/A
7:35 am 07:35 Sunny 65 18.3 58 14.5 79 79 SSE 10 17 29.86 1011 10 16 N/A
7:55 am 07:55 Sunny 65 18.6 58 14.5 77 77 SSE 12 19 29.85 1011 10 16 N/A
8:15 am 08:15 Sunny 67 19.3 58 14.7 75 75 SSE 12 19 29.84 1011 10 16 N/A
8:35 am 08:35 Sunny 67 19.5 58 14.7 74 74 SSE 13 20 29.84 1011 10 16 N/A
8:55 am 08:55 Sunny 67 19.7 59 14.8 73 73 S 12 19 29.84 1010 10 16 N/A
9:15 am 09:15 Sunny 68 20 59 14.8 72 72 S 10 17 29.84 1010 10 16 N/A
9:35 am 09:35 Sunny 71 21.5 59 15.1 67 67 SSE 12 19 29.82 1010 10 16 N/A
9:55 am 09:55 Sunny 74 23.1 59 14.8 60 60 S 14 22 29.79 1009 10 16 N/A
10:15 am 10:15 Sunny 76 24.4 59 14.8 55 55 S 18 30 29.78 1009 10 16 N/A
10:35 am 10:35 Sunny 77 25.2 59 15 53 53 S 15 24 29.77 1008 10 16 N/A
10:55 am 10:55 Sunny 79 26 59 14.9 50 50 S 21 33 29.74 1007 10 16 N/A
11:15 am 11:15 Sunny 81 27.1 59 15.1 48 48 S 16 26 29.72 1006 10 16 N/A
11:35 am 11:35 Sunny 82 28 59 14.8 45 45 S 20 31 29.70 1006 10 16 N/A
11:55 am 11:55 Sunny 83 28.6 59 14.8 43 43 S 25 41 29.69 1005 10 16 N/A
12:15 pm 12:15 Sunny 83 28.4 59 15 44 44 S 26 43 29.68 1005 10 16 N/A
12:35 pm 12:35 Sunny 84 29 59 14.9 42 42 S 25 41 29.67 1005 10 16 N/A
12:55 pm 12:55 Sunny 85 29.6 60 15.3 42 42 S 21 33 29.66 1004 10 16 N/A
1:15 pm 13:15 Sunny 87 30.8 58 14.7 38 38 S 24 39 29.63 1003 10 16 N/A
1:35 pm 13:35 Sunny 87 30.4 58 14.6 38 38 S 26 43 29.63 1003 10 16 N/A
1:55 pm 13:55 Sunny 88 31.2 59 15 37 37 SSE 24 39 29.61 1003 10 16 N/A
2:15 pm 14:15 Sunny 89 31.6 59 14.8 36 36 SSE 25 41 29.59 1002 10 16 N/A
2:35 pm 14:35 Sunny 89 31.8 59 14.8 36 36 SSE 25 41 29.59 1002 10 16 N/A
2:55 pm 14:55 Sunny 89 31.5 58 14.7 36 36 S 25 41 29.58 1002 10 16 N/A
3:15 pm 15:15 Sunny 90 32 59 15.2 36 36 SSE 21 33 29.57 1001 10 16 N/A
3:35 pm 15:35 Sunny 90 32.4 59 15.1 35 35 S 25 41 29.56 1001 10 16 N/A
3:55 pm 15:55 Sunny 91 32.8 60 15.4 35 35 SSE 22 35 29.55 1001 10 16 N/A
4:15 pm 16:15 Sunny 91 32.7 60 15.5 35 35 SSE 23 37 29.54 1000 10 16 N/A
4:35 pm 16:35 Sunny 89 31.7 59 15.1 37 37 SSE 25 41 29.55 1001 10 16 N/A
4:55 pm 16:55 Sunny 90 32.3 60 15.4 36 36 SSE 23 37 29.53 1000 10 16 N/A
5:15 pm 17:15 Sunny 89 31.8 60 15.4 37 37 SSE 22 35 29.54 1000 10 16 N/A
5:35 pm 17:35 Sunny 89 31.8 60 15.3 37 37 SSE 20 31 29.54 1000 10 16 N/A
5:55 pm 17:55 Sunny 88 31.3 60 15.5 38 38 S 23 37 29.53 1000 10 16 N/A
6:15 pm 18:15 Sunny 87 30.6 61 16 41 41 SSE 20 31 29.53 1000 10 16 N/A
6:35 pm 18:35 Sunny 86 30.1 61 15.9 42 42 SSE 21 33 29.54 1000 10 16 N/A
6:55 pm 18:55 Sunny 85 29.4 60 15.5 43 43 SSE 20 31 29.53 1000 10 16 N/A
7:15 pm 19:15 Sunny 83 28.3 60 15.3 45 45 SSE 15 24 29.54 1000 10 16 N/A
7:35 pm 19:35 Sunny 82 28 58 14.7 44 44 SSE 18 30 29.54 1000 10 16 N/A
7:55 pm 19:55 Clear 82 27.5 58 14.5 45 45 SSE 15 24 29.54 1000 10 16 N/A
8:15 pm 20:15 Clear 81 27 57 14 45 45 SSE 17 28 29.55 1001 10 16 N/A
8:35 pm 20:35 Clear 80 26.5 57 14 46 46 SSE 15 24 29.56 1001 10 16 N/A
8:55 pm 20:55 Clear 78 25.8 58 14.6 50 50 SSE 15 24 29.56 1001 10 16 N/A
9:15 pm 21:15 Clear 78 25.8 58 14.7 50 50 SSE 16 26 29.57 1001 10 16 N/A
9:35 pm 21:35 Clear 78 25.8 58 14.6 50 50 SSE 16 26 29.57 1001 10 16 N/A
9:55 pm 21:55 Clear 78 25.3 58 14.5 51 51 SSE 16 26 29.59 1002 10 16 N/A
10:15 pm 22:15 Clear 78 25.3 58 14.6 52 52 SSE 15 24 29.59 1002 10 16 N/A
10:35 pm 22:35 Clear 77 25.1 58 14.5 52 52 SSE 17 28 29.59 1002 10 16 N/A
10:55 pm 22:55 Clear 77 25 58 14.3 52 52 SSE 17 28 29.58 1002 10 16 N/A
11:15 pm 23:15 Clear 77 24.8 58 14.5 53 53 SSE 17 28 29.58 1002 10 16 N/A
11:35 pm 23:35 Clear 76 24.3 58 14.5 54 54 SSE 16 26 29.57 1001 10 16 N/A
11:55 pm 23:55 Clear 75 24.1 58 14.5 55 55 SSE 15 24 29.58 1002 10 16 N/A

Powered by AerisWeather